To modify the report, make a selection from each column below and re-run.

Report Type Graduation Filter Grade Filter Gender

(Grade filter for indiv report.)


Course PR Report: Silverlakes Sports Park

The report below currently displays:

  • Individual PR's
  • Grads & Current Runners
  • All Grades
  • Girls
  • 3 miles
  • Grads & Current Runners
All Time Rank Runner Name Grad Year Time Pace PR Date PR Event # of
Races
Graph full race
history on course
(pick up to 15)
1 Audrey Simpson 2019 18:14.6 6:05 9/15/18 Woodbridge XC Classic 3
2 Emily Leeb 2019 18:29.6 6:10 9/15/18 Woodbridge XC Classic 3
3 Allie Poor 2023 19:16.4 6:25 9/21/19 Woodbridge XC Classic 2
4 Hannah Jensen 2022 19:23.9 6:28 9/21/19 Woodbridge XC Classic 2
5 Alexandria Brady 2018 19:31.8 6:31 9/16/16 Woodbridge XC Classic 1
6 Briana Fieffer 2020 19:56.9 6:39 9/21/19 Woodbridge XC Classic 4
7 Ava Scarberry 2022 20:01.3 6:40 9/21/19 Woodbridge XC Classic 3
8 Regan Heredia 2021 20:02 6:41 9/15/18 Woodbridge XC Classic 3
9 My Ly 2019 20:25.4 6:48 9/16/16 Woodbridge XC Classic 3
10 Lupe Mata 2024 20:27.7 6:49 9/18/21 Woodbridge Cross Country Classic 1
11 Jasmine Alvarez 2017 20:51.8 6:57 9/16/16 Woodbridge XC Classic 1
12 Abigail Delight 2025 20:56.3 6:59 9/18/21 Woodbridge Cross Country Classic 1
13 Taylor Brobst 2019 20:58.3 6:59 9/16/16 Woodbridge XC Classic 1
14 Sonia Salazar 2022 20:58.8 7:00 9/18/21 Woodbridge Cross Country Classic 3
15 Courtney Melancon 2025 21:05 7:02 9/18/21 Woodbridge Cross Country Classic 1
16 Lacey Schlarmann 2021 21:08.7 7:03 9/21/19 Woodbridge XC Classic 3
17 Joanna Hwang 2018 21:19.6 7:07 9/16/17 Woodbridge XC Classic 1
18 Taylor Perez 2019 21:21.2 7:07 9/15/18 Woodbridge XC Classic 3
19 Claire Leeb 2021 21:25.9 7:09 9/21/19 Woodbridge XC Classic 3
20 Sara Hurley 2018 21:45.1 7:15 9/16/17 Woodbridge XC Classic 2
21 Karissa Sugita 2019 21:51.1 7:17 9/16/16 Woodbridge XC Classic 2
22 Inessa Macias 2019 21:55.3 7:18 9/15/18 Woodbridge XC Classic 1
23 Sophia Cruz 2023 22:08.5 7:23 9/18/21 Woodbridge Cross Country Classic 2
24 Sandra Vu 2021 22:19.5 7:27 9/21/19 Woodbridge XC Classic 3
25 autumn long 2024 22:28.3 7:29 9/18/21 Woodbridge Cross Country Classic 1
26 Reagan Orr 2021 22:41.7 7:34 9/15/18 Woodbridge XC Classic 3
27 Samantha Polk 2022 22:43.9 7:35 9/21/19 Woodbridge XC Classic 2
28 Lucy Hendriks 2025 22:54.5 7:38 9/18/21 Woodbridge Cross Country Classic 1
29 Kaitlin Oberle 2021 22:57.4 7:39 9/16/17 Woodbridge XC Classic 3
30 Cadence Koenke 2024 23:01.4 7:40 9/18/21 Woodbridge Cross Country Classic 1
31 Terrie Vu 2021 23:08 7:43 9/15/18 Woodbridge XC Classic 1
32 Jocelyn Corona 2024 23:12.7 7:44 9/18/21 Woodbridge Cross Country Classic 1
33 Emily wood 2022 23:14.9 7:45 9/21/19 Woodbridge XC Classic 1
34 Geneve Lopez 2023 23:38.8 7:53 9/21/19 Woodbridge XC Classic 1
35 Casey Li 2020 23:42.2 7:54 9/16/17 Woodbridge XC Classic 1
36 Juliana Hwang 2019 23:54.7 7:58 9/15/18 Woodbridge XC Classic 2
37 Riley Clausi 2025 24:08.5 8:03 9/18/21 Woodbridge Cross Country Classic 1
38 Alyssa VanWormer 2023 24:30.1 8:10 9/18/21 Woodbridge Cross Country Classic 2
39 Alyssa Bacilio 2025 24:31.5 8:11 9/18/21 Woodbridge Cross Country Classic 1
40 Erin Jow 2021 24:43.9 8:15 9/15/18 Woodbridge XC Classic 3
41 samantha aguilar 2024 24:46.5 8:16 9/18/21 Woodbridge Cross Country Classic 1
42 Kayla Yesenosky 2024 24:49.5 8:17 9/18/21 Woodbridge Cross Country Classic 1
43 Samantha Skinner 2023 25:03.8 8:21 9/21/19 Woodbridge XC Classic 2
44 Jenny Tran 2021 25:06.9 8:22 9/15/18 Woodbridge XC Classic 1
45 Kayla Turay 2018 25:17.5 8:26 9/16/16 Woodbridge XC Classic 1
46 Catherine Tran 2022 25:26.2 8:29 9/15/18 Woodbridge XC Classic 1
47 Dylan Smith 2019 25:28.8 8:30 9/16/16 Woodbridge XC Classic 1
48 Mia Wong 2025 25:34.5 8:32 9/18/21 Woodbridge Cross Country Classic 1
49 Mikiela Garcia-Halbig 2021 25:35.5 8:32 9/16/17 Woodbridge XC Classic 1
50 Rachel Wilkerson 2023 25:39.1 8:33 9/18/21 Woodbridge Cross Country Classic 1
51 Amy Nguyen 2018 25:45.1 8:35 9/16/17 Woodbridge XC Classic 1
52 Michelle Gutierrez 2021 25:50.1 8:37 9/16/17 Woodbridge XC Classic 1
53 Karen Tran 2022 26:02.5 8:41 9/21/19 Woodbridge XC Classic 1
54 Yesenia Calleja 2022 26:04.9 8:42 9/21/19 Woodbridge XC Classic 1
55 Bailey Hicken 2018 26:07.5 8:43 9/16/17 Woodbridge XC Classic 2
56 Elena Hernandez 2021 26:24.9 8:48 9/21/19 Woodbridge XC Classic 1
57 Marissa Traviglia 2022 26:25.1 8:48 9/15/18 Woodbridge XC Classic 3
58 Carolina Meza 2023 26:29.3 8:50 9/18/21 Woodbridge Cross Country Classic 1
59 Marwa Moustakis 2022 27:43.9 9:15 9/15/18 Woodbridge XC Classic 1
60 Amy Ngyuen 2018 28:05.8 9:22 9/16/16 Woodbridge XC Classic 1
61 Jocelyn Marin 2022 28:06 9:22 9/15/18 Woodbridge XC Classic 1
62 Acelyn Dao 2024 28:46.3 9:35 9/18/21 Woodbridge Cross Country Classic 1
63 Breann Dolan 2024 28:47.6 9:36 9/18/21 Woodbridge Cross Country Classic 1
64 Natalie Bonilla 2023 28:48.1 9:36 9/18/21 Woodbridge Cross Country Classic 2
65 Britton Dedmon 2020 29:29.2 9:50 9/15/18 Woodbridge XC Classic 1
66 Sophia Gonzalez 2025 29:54.8 9:58 9/18/21 Woodbridge Cross Country Classic 1
67 Sophia Choe 2018 31:03.3 10:21 9/16/17 Woodbridge XC Classic 2
68 Van Nguyen 2018 31:04 10:21 9/16/17 Woodbridge XC Classic 1
69 Riley Shields 2022 33:24.7 11:08 9/15/18 Woodbridge XC Classic 1
70 Vanessa Glines 2020 34:35.8 11:32 9/16/17 Woodbridge XC Classic 1
71 Amadalyn Guerrero 2021 34:56.6 11:39 9/16/17 Woodbridge XC Classic 1
72 Megan Nguyen 2020 36:40.5 12:14 9/16/17 Woodbridge XC Classic 1
All Time Rank Runner Name Grad Year Time Pace PR Date PR Event # of
Races
Graph full race
history on course
(pick up to 7)

Note: All columns are sortable by clicking on the column heading.